KMGR

Details ICAO KMGR
Name MOULTRIE MUNI
Region United States
Timezone America/New_York (UTC-4.0)
Plans Departing 1
Arriving 2
Stats Elevation 294 ft / 90 m (AMSL)
Location 31.084747° -83.803063°
Runways 2
Magnetic Variation 5.206° W
Sunrise 2018-05-27 10:35:05 UTC / 2018-05-27 06:35:05 Local
Sunset 2018-05-28 00:32:35 UTC / 2018-05-27 20:32:35 Local
Advertisement - Login to hide

Runways

ID Width Length Bearing (true) Bearing (mag) Surface Threshold Offset Overrun Length
04 100 ft / 30 m 5,136 ft / 1,565 m 38.74° 43.95° Asphalt 0 ft / 0 m 0 ft / 0 m
16 75 ft / 23 m 3,888 ft / 1,185 m 159.38° 164.59° Asphalt 260 ft / 79 m 200 ft / 61 m
22 100 ft / 30 m 5,136 ft / 1,565 m 218.74° 223.95° Asphalt 0 ft / 0 m 0 ft / 0 m
34 75 ft / 23 m 3,888 ft / 1,185 m 339.38° 344.59° Asphalt 0 ft / 0 m 0 ft / 0 m

Map

Weather


0- 5 10 15 20 25 30 35+ Temperature / ° C

Clouds and Precipitation
Forecast for 2018-05-27 06:00 UTC. Updated 3 hours ago

Ground ~20,000 ft ~40,000 ft Winds

METAR

KMGR 270735Z AUTO 00000KT 10SM CLR 22/21 A2990 RMK AO2

TAF

Not found

Frequencies

Recorded 118.92 MHz AWOS 3
Approach 119.52 MHz VALDOSTA APP/DEP
Unicom 122.80 MHz CTAF/UNICOM
Approach 126.60 MHz VALDOSTA APP/DEP
Warning: Do not use this data for real-world aviation or navigation. No guarantee of current accuracy is given.